COSMOS 2596 (708K)

Last updated on Wed Oct 29 2025 00:03:20 GMT+0000 (Coordinated Universal Time)

1 65590U 25206B 25301.40184331 -.00000017 00000+0 00000+0 0 9992 2 65590 64.7683 323.0517 0013669 302.5076 233.8685 2.13100923 961
UTC large
Height (km)
Speed (km/s)
/
Latitude / Longitude
Inclination (degrees)
Orbital Period (minutes)
Azimuth
Elevation
Range (km)
Doppler Factor

Next 0 passes for location: London (51.5072 / 0.1276)

Sorry there are no passes over London.